Regional Weather Roundup
Issued by NWS

Home | Current Version | Previous Version | Text Only | Print | Product List | Glossary Off
Versions: 1 2 3 4 5 6 7 8 9 10 11 12 13 14 15 16 17 18 19 20 21 22 23 24 25 26 27 28 29 30 31 32 33 34 35 36 37 38 39 40 41 42 43 44 45 46 47 48 49 50

000
ASUS43 KFSD 251802
RWRSD

WEATHER ROUNDUP FOR SOUTH DAKOTA
NATIONAL WEATHER SERVICE SIOUX FALLS SD
1200 PM CST TUE NOV 25 2014

NOTE: "FAIR" INDICATES FEW OR NO CLOUDS BELOW 12,000 FEET WITH NO
SIGNIFICANT WEATHER AND/OR OBSTRUCTIONS TO VISIBILITY.


SDZ001>005-009-010-012>017-251900-
NORTHWEST AND NORTH CENTRAL SOUTH DAKOTA

CITY           SKY/WX    TMP DP  RH WIND       PRES   REMARKS
BUFFALO          N/A     33  30  88 W18       29.66F WCI  22
FAITH            N/A     34  26  72 SW8       29.75F WCI  27
MOBRIDGE       CLOUDY    33  29  85 S10       29.79F WCI  25
$$

SDZ012>016-024>037-041>051-057-063-072>074-251900-
SOUTHWEST AND SOUTH CENTRAL SOUTH DAKOTA

CITY           SKY/WX    TMP DP  RH WIND       PRES   REMARKS
RAPID CTY ARPT CLOUDY    35  26  69 N9        29.78F WCI  28
PIERRE         CLOUDY    33  25  72 SE8       29.84F WCI  26
CUSTER         LGT SNOW  29  24  82 W10       29.74F WCI  20
ELLSWORTH AFB  LGT SNOW  36  28  75 NW9       29.77  VSB 7/8
PHILIP         CLOUDY   N/A N/A N/A SE5       29.79F
PINE RIDGE     CLOUDY    36  26  67 SW9       29.80F
WINNER         MOCLDY    39  24  55 S14       29.85F
$$

SDZ004>011-016>023-039-040-251900-
NORTHEAST SOUTH DAKOTA

CITY           SKY/WX    TMP DP  RH WIND       PRES   REMARKS
ABERDEEN       CLOUDY    30  24  78 S9        29.91F WCI  22
WATERTOWN      CLOUDY    26  19  74 S7        29.92F WCI  18
SISSETON         N/A     29  20  69 S5        29.93F WCI  24
$$

SDZ017-020-022-023-036>040-048>070-251900-
SOUTHEAST SOUTH DAKOTA

CITY           SKY/WX    TMP DP  RH WIND       PRES   REMARKS
SIOUX FALLS    PTSUNNY   32  15  49 S9        29.98F WCI  24
HURON          PTSUNNY   33  24  69 SE10      29.92F WCI  25
MITCHELL       PTSUNNY   35  25  66 SE9       29.95F WCI  28
YANKTON        PTSUNNY   37  25  60 S8        29.99F
$$

ABBREVIATIONS USED IN REMARKS
   TC - TEMPERATURE IN CELSIUS
  WCI - WIND CHILL INDEX
   HX - HEAT INDEX
  VSB - VISIBILITY



USA.gov is the U.S. government's official web portal to all federal, state and local government web resources and services.